Torna al catalogo

STARLINK-30934

AttivoComunicazioniVLEO
NORAD 58395·PAYLOAD·🇺🇸 United States

Lanciato Nov 20, 2023 da Vandenberg Space Force Base

Loading…

Prossimi Passaggi (prossime 24 ore)

TLE

AggiornatoSource: CelesTrak SupGP

Epoca: Sep 15, 2026, 01:41 UTC

1 58395C 23178X   26258.07062500 -.00001564  00000+0 -46173-4 0  2584
2 58395  53.1576 197.4552 0001437  94.8877 258.7938 15.34418850    12

Traccia STARLINK-30934 in tempo reale con AllMySat

Download on the App Store